Regional Weather Roundup
Issued by NWS State College, PA

Home | Current Version | Previous Version | Text Only | Print | Product List | Glossary On
Versions: 1 2 3 4 5 6 7 8 9 10 11 12 13 14 15 16 17 18 19 20 21 22 23 24 25 26 27 28 29 30 31 32 33 34 35 36 37 38 39 40 41 42 43 44 45 46 47 48 49 50
000
ASUS41 KCTP 261610
RWRCTP

REGIONAL WEATHER ROUNDUP
NATIONAL WEATHER SERVICE STATE COLLEGE PA
1200 PM EDT MON JUN 26 2017

Note: "fair" indicates few or no clouds below 12,000 feet with no
significant weather and/or obstructions to visibility.

* = STATION THAT DOES NOT REPORT PRECIPITATION /E.G. RAIN...SNOW...ETC/
    THUNDER OR FOG.

PAZ002>004-007>009-013>016-020>023-029>032-261700-
WESTERN PENNSYLVANIA

CITY           SKY/WX    TMP DP  RH WIND       PRES   REMARKS
ERIE           CLOUDY    64  53  67 SW10      30.03S
MEADVILLE      PTSUNNY   66  50  56 VRB7      30.04F
FRANKLIN*      MOSUNNY   68  46  45 SW9G18    30.06S
NEW CASTLE     PTSUNNY   67  47  48 SW12G18   30.07S
BEAVER COUNTY  PTSUNNY   70  50  49 W10G20    30.07S
BUTLER*        SUNNY     70  46  43 W18G28    30.07F
PITTSBURGH INT PTSUNNY   69  48  47 SW9G25    30.07S
PITTSBURGH     PTSUNNY   70  45  40 W15G23    30.07F
INDIANA*       PTSUNNY   70  48  46 W14G22    30.10F
LATROBE        PTSUNNY   68  48  49 W10G17    30.09F
WASHINGTON CO* CLOUDY    68  48  49 W10       30.11S
$$

PAZ004>006-010>012-017>019-024>028-033>037-041-042-045-046-049>053-261700-
CENTRAL PENNSYLVANIA

CITY           SKY/WX    TMP DP  RH WIND       PRES   REMARKS
BRADFORD       MOSUNNY   65  49  56 W9        30.06F
DUBOIS         PTSUNNY   64  44  48 SW13G20   30.06F
CLEARFIELD     PTSUNNY   70  46  42 SW13G21   30.07F
JOHNSTOWN      PTSUNNY   66  44  45 W13G20    30.10F
ALTOONA        NOT AVBL
STATE COLLEGE  PTSUNNY   70  46  43 W12       30.07F
WILLIAMSPORT   NOT AVBL
SELINSGROVE    NOT AVBL
FT INDIANTOWN  MOSUNNY   74  47  38 W10       30.06S
CAPITAL CITY   PTSUNNY   75  45  33 W6        30.06F
HARRISBURG     NOT AVBL
YORK           NOT AVBL
$$

PAZ038>040-043-044-047-048-054-055-060>062-067>071-261700-
EASTERN PENNSYLVANIA

CITY           SKY/WX    TMP DP  RH WIND       PRES   REMARKS
SCRANTON       NOT AVBL
MOUNT POCONO   NOT AVBL
ALLENTOWN      NOT AVBL
QUAKERTOWN*    MOSUNNY   75  46  35 NW5       30.07S
READING        NOT AVBL
LANCASTER      MOSUNNY   75  48  38 VRB3      30.06F
COATESVILLE    MOSUNNY   73  50  43 VRB6      30.09S
POTTSTOWN      NOT AVBL
BLUE BELL      PTSUNNY   73  46  38 NW5       30.07S
DOYLESTOWN     NOT AVBL
WILLOW GROVE   NOT AVBL
NORTH PHILA    MOSUNNY   79  48  34 NW8       30.07
PHILADELPHIA   MOSUNNY   79  39  23 W12       30.06S
$$




USA.gov is the U.S. government's official web portal to all federal, state and local government web resources and services.